FENGYUN 1C DEB, 31262

Orbit data source: Space-Track

FENGYUN 1C DEB, 31262 is space debris in SSO originally from a launch on Mon, 10 May 1999 UTC launched from the Taiyaun Space Center, China (TSC). Fengyun 1C debris stems from the Chinese weather satellite Fengyun-1C, which was intentionally destroyed by a Chinese anti-satellite missile in 2007. This event dramatically increased the amount of space debris, with thousands of trackable fragments posing hazards to satellites and human spaceflight. The Fengyun 1C debris cloud has become a focal point in discussions about space sustainability and the need for international regulations to prevent the creation of new debris.

Loading next visibility...
Identifier
31262, 1999-025BMU
Orbit
SSO
Country
Flag of CNCN / PRC
Related business
Manufacturer
Unknown
Mission
Spacecraft
Bus & Motor
Unknown
Mass
Unknown
Launch date (UTC)
1999-05-10 (27 years ago)
Launch vehicle
Unknown
Launch site
Taiyaun Space Center, China (TSC)
Object type
Payload
Rocket body
Debris
Shape & HBR
Unknown shape, 0.1 m
Radar Cross Section
Small (<0.1 m²)

Expand to show TLE details & history
Last TLE update: 4 days ago

TLE from 4 days ago
0 FENGYUN 1C DEB
1 31262U 99025BMU 25350.79139738  .00002539  00000-0  12381-2 0  9997
2 31262  99.0021  74.3056 0054940  86.7351  42.7165 14.18213534957664
Epoch: 2025-12-16T18:59Z
TLE epoch observation values (Epoch: 2025-12-16T18:59:36.733Z)
Latitude
49.38195°
Longitude
-105.68056°
Altitude
810.166 km
Speed
7.468 km/s
True Right ascension
17h 39m 34s
True Declination
49° 12' 47"
Sunlit
Object was in daylight at epoch
Visualization orbit readout
Latitude
Unknown
Longitude
Unknown
Altitude
Unknown
Speed
Unknown
Apparent Right ascension
Unknown
Apparent Declination
Unknown
Sunlit
N/A
Visualization observer readout
Local Sidereal Time
03:49:23
Azimuth
Unknown
Elevation
Unknown
Doppler factor
Unknown
Orbital elements
Apogee altitude
868.17 km
Perigee altitude
788.982 km
Semi-major axis
7,206.713 km
Eccentricity
0.00549
Inclination
99.0021°
RAAN
74.3056°
Arg. of periapsis
86.7351°
True anomaly
43.14574°
Mean anomaly
42.7165°
Eccentric anomaly
42.9309°
Mean motion
3.54762 °/min
Orbital period
101.48 mins
BSTAR
0.0012381
Loading maneuver chart data...
Computing Atmospheric mass density...

Documentation

Showing up to 5 results
|